Overview Statistics Trail Chart Weather Telemetry Raw packets
 

This is the latest recevied weather packets stored in our database for station/object OE3TEC-15. If no packets are shown the sender has not sent any weather packets the latest 10 day(s).

<< 19 20 21 22 23 24 25 >>
Time Temp. Humidity Pressure Rain* Wind** Luminosity Snow
1787833449 28.33° C 46% 1018.6 hPa 0 mm - 371 W/m² -
1787832846 28.89° C 44% 1018.4 hPa 0 mm - 351 W/m² -
1787832209 28.89° C 45% 1018.5 hPa 0 mm - 490 W/m² -
1787830969 28.33° C 45% 1018.6 hPa 0 mm - 597 W/m² -
1787829726 28.33° C 45% 1018.6 hPa 0 mm - 625 W/m² -
1787828504 27.78° C 46% 1019 hPa 0 mm - 585 W/m² -
1787824838 27.22° C 47% 1019 hPa 0 mm - 585 W/m² -
1787822962 26.11° C 50% 1018.9 hPa 0 mm - 588 W/m² -
1787822358 26.11° C 50% 1018.9 hPa 0 mm - 574 W/m² -
1787819904 24.44° C 53% 1019.3 hPa 0 mm - 471 W/m² -
1787816201 22.78° C 58% 1019.1 hPa 0 mm - 379 W/m² -
1787814962 21.67° C 65% 1019.6 hPa 0 mm - 322 W/m² -
1787811899 19.44° C 70% 1019.8 hPa 0 mm - 196 W/m² -
1787806368 16.11° C 80% 1019.3 hPa 0 mm - 36 W/m² -
1787805761 15.56° C 80% 1019.2 hPa 0 mm - 23 W/m² -
1787803302 15.56° C 81% 1019.3 hPa 0 mm - 2 W/m² -
1787797138 16.11° C 77% 1019.1 hPa 0 mm - 0 W/m² -
1787796535 16.11° C 77% 1019.2 hPa 0 mm - 0 W/m² -
1787795898 16.67° C 76% 1019.2 hPa 0 mm - 0 W/m² -
1787794658 16.67° C 75% 1019.5 hPa 0 mm - 0 W/m² -
1787792814 16.67° C 74% 1019.4 hPa 0 mm - 0 W/m² -
1787792193 16.67° C 74% 1019.4 hPa 0 mm - 0 W/m² -
1787790986 16.67° C 74% 1019.6 hPa 0 mm - 0 W/m² -
1787790379 16.67° C 74% 1019.5 hPa 0 mm - 0 W/m² -
1787789767 16.67° C 74% 1019.7 hPa 0 mm - 0 W/m² -

* Rain latest hour (hover to see other rain measurements)
** Current wind speed in m/s (hover to see current wind gust speed)